Location: Staunton
(38.1490°N, 79.0720°W)
Time: 00:51:15
(UTC-04:00)

ISS - Pass Details

Date: 04 May 2021
Orbit: 417 x 422 km, 51.6° (Epoch: 18 May)

Event Time Altitude Azimuth Distance (km) Brightness Sun altitude
Exits shadow 02:58:53 14° 33° (NNE) 1,271 -0.5 -30.4°
Drops below altitude 10° 02:59:30 10° 37° (NE) 1,502 -0.1 -30.3°
Sets 03:01:41 0° 46° (NE) 2,370 1.1 -30.1°
